www.pogodaiklimat.ru
ПОГОДА в Ситаване
Время
(UTC), дата
21 8.10
00 9.10
03 9.10
06 9.10
09 9.10
12 9.10
15 9.10
18 9.10
21 9.10
00 10.10
03 10.10
06 10.10
09 10.10
12 10.10
15 10.10
18 10.10
21 10.10
00 11.10
03 11.10
06 11.10
09 11.10
12 11.10
15 11.10
18 11.10
21 11.10
00 12.10
03 12.10
06 12.10
09 12.10
12 12.10
15 12.10
18 12.10
21 12.10
00 13.10
03 13.10
06 13.10
09 13.10
12 13.10
15 13.10
18 13.10
21 13.10
00 14.10
03 14.10
06 14.10
09 14.10
12 14.10
15 14.10
18 14.10
21 14.10
00 15.10
03 15.10
06 15.10
09 15.10
12 15.10
15 15.10
18 15.10
Ветер
(напр.,м/с)
Видим. Явления Облачность Т
(С)
Тd
(С)
f
(%)
Тe
(С)
Тes
(С)
Комфортность P
(гПа)
Po
(гПа)
Тmin
(С)
Tmax
(С)
R
(мм)
R24
(мм)
S
(см)
штиль 0 7000 м дымка 9/3 150 м
[Sc Ac lent Ci sp]
+23.5 +23.0 97 +31 +31 очень
душно
1009.6 1008.7
СВ 1 7000 м дымка 9/3 1000 м
[Cu Sc Ac trans Ci sp]
+23.6 +23.1 97 +31 +32 очень
душно
1011.2 1010.3 +23.3 6
ЮЗ 1 12 км мгла 9/3 500 м
[Cb cap Ac trans Ci sp]
+29.8 +24.6 74 +42 +50 опасность
перегрева
1012.9 1012.0
З 2 13 км мгла 9/4 500 м
[Cb cap Ac trans Ci sp]
+30.5 +25.7 76 +45 +53 опасность
перегрева
1010.0 1009.1
З 2 13 км мгла 9/4 480 м
[Cb cap Ac lent Cs]
+29.1 +25.4 80 +42 +45 опасность
перегрева
1007.8 1006.9
С 3 9000 м гроза, ливневой дождь 9/5 480 м
[Cb cap Ac lent Cs]
+25.1 +24.2 95 +35 +35 очень
душно
1010.5 1009.6 +27.0 3
С 2 9000 м слаб. дождь {гроза} 9/5 500 м
[Cb cap Ac lent Cs]
+24.1 +23.3 95 +32 +32 очень
душно
1013.0 1012.1
В 1 6000 м дымка {гроза, дождь} 9/4 930 м
[Sc Ac lent Cs]
+23.9 +23.4 97 +32 +32 очень
душно
1011.4 1010.5 0.8
В 1 6000 м дымка 9/3 210 м
[St Ac trans Cs]
+23.8 +23.1 96 +32 +32 очень
душно
1009.7 1008.8
штиль 0 9000 м дымка 9/4 1000 м
[Cu Sc Ac trans Ci fib]
+23.8 +23.1 96 +32 +32 очень
душно
1011.7 1010.8 +23.4 4
С 1 13 км мгла 9/1 660 м
[Cu hum Ac trans Ci sp]
+29.3 +24.9 77 +42 +50 опасность
перегрева
1012.6 1011.7
З 2 13 км мгла 9/4 660 м
[Cu hum Ac lent Ci sp]
+32.1 +25.3 67 +46 +54 опасность
перегрева
1010.2 1009.3
СЗ 3 13 км мгла 9/4 500 м
[Cb cap Ac trans Ci sp]
+30.9 +25.8 74 +46 +48 опасность
перегрева
1007.8 1006.9
В 2 10 км зарница 9/3 500 м
[Cb cap Ac trans Ci sp]
+28.3 +25.4 84 +41 +41 опасность
перегрева
1010.6 1009.7 +32.3
В 1 9000 м мгла 9/4 900 м
[Sc Ac trans Ci sp]
+26.4 +25.0 92 +38 +38 очень
душно
1012.1 1011.2
штиль 0 9000 м мгла 9/4 900 м
[Sc Ac lent Cs]
+25.9 +24.7 93 +37 +37 очень
душно
1010.5 1009.6
штиль 0 9000 м мгла 9/4 900 м
[Sc Ac trans Ci sp]
+24.9 +23.7 93 +34 +34 очень
душно
1009.5 1008.6
СВ 2 10 км мгла 9/3 1000 м
[Cu Sc Ac trans Ci sp]
+25.0 +23.4 91 +34 +34 очень
душно
1010.8 1009.9 +23.8
СЗ 1 13 км мгла 9/4 660 м
[Cu hum Ac trans Ci sp]
+30.6 +25.6 75 +45 +51 опасность
перегрева
1012.0 1011.1
З 3 12 км слаб. дождь 9/5 500 м
[Cb cap Ac lent Cs]
+30.0 +25.7 78 +45 +50 опасность
перегрева
1009.5 1008.6 0.0
СЗ 2 11 км мгла 9/4 500 м
[Cb cap Ac trans Cs]
+28.3 +25.5 85 +42 +44 опасность
перегрева
1008.3 1007.4
В 2 10 км в посл. час дождь 9/4 900 м
[Sc Ac lent Cs]
+26.1 +25.2 95 +38 +38 очень
душно
1010.2 1009.3 +32.4 1
штиль 0 9000 м мгла 9/3 960 м
[Sc Ac trans Cs]
+24.7 +23.9 95 +34 +34 очень
душно
1011.3 1010.4
штиль 0 9000 м дымка 9/4 180 м
[Sc Ac trans Cs]
+24.5 +23.8 96 +33 +33 очень
душно
1009.4 1008.5
В 1 9000 м дымка 9/4 120 м
[Sc Ac trans Cs]
+24.3 +23.5 95 +33 +33 очень
душно
1008.9 1008.0
СВ 1 8000 м мгла 9/3 <50 м
[Cb cap Ac trans Ci sp]
+24.2 +23.4 95 +32 +33 очень
душно
1010.3 1009.4 +23.6 1
С 2 13 км мгла 8/3 600 м
[Cu Sc Ac trans Ci sp]
+30.5 +25.8 76 +45 +52 опасность
перегрева
1011.1 1010.2
З 2 12 км в посл. час ливневой дождь 9/4 500 м
[Cb cap Ac trans Ci sp]
+31.4 +26.4 75 +48 +55 опасность
перегрева
1009.0 1008.1 0.6
З 3 13 км мгла 9/4 500 м
[Cb cap Ac lent Cs]
+30.2 +25.2 75 +44 +46 опасность
перегрева
1007.2 1006.3
СВ 2 10 км в посл. час гроза 9/4 500 м
[Cb cap Ac lent Cs]
+25.6 +23.9 90 +35 +35 очень
душно
1008.8 1007.9 +32.4
штиль 0 9000 м в посл. час дождь 9/3 930 м
[Sc Ac lent Cs]
+24.8 +23.6 93 +34 +34 очень
душно
1011.5 1010.6
СВ 1 8000 м мгла {дождь} 9/3 960 м
[Sc Ac trans Cs]
+24.8 +23.9 95 +34 +34 очень
душно
1009.7 1008.8 0.2
штиль 0 6000 м дымка 9/4 180 м
[St Ac trans Ci sp]
+24.3 +23.6 96 +33 +33 очень
душно
1008.9 1008.0
штиль 0 8000 м дымка 9/3 <50 м
[Cb cap Ac trans Ci fib]
+24.6 +24.1 97 +34 +34 очень
душно
1010.2 1009.3 +24.0 0.8
Ю 2 14 км мгла 8/3 660 м
[Cu hum Ac trans Ci sp]
+30.8 +25.2 72 +45 +51 опасность
перегрева
1011.4 1010.5
Ю 3 13 км мгла 9/5 500 м
[Cb cap Ac lent Ci sp]
+30.7 +25.8 75 +46 +51 опасность
перегрева
1009.6 1008.7
З 1 13 км мгла 9/4 500 м
[Cb cap Ac trans Ci sp]
+30.7 +25.6 74 +45 +48 опасность
перегрева
1007.3 1006.4
СВ 1 9000 м слаб. дождь 10/5 500 м
[Cb cap Ac lent Cs]
+25.7 +24.3 92 +36 +36 очень
душно
1009.3 1008.4 +31.6 3
штиль 0 9000 м зарница {дождь} 9/4 500 м
[Cb cap Ac lent Cs]
+25.6 +24.6 94 +36 +36 очень
душно
1012.1 1011.2
СВ 2 9000 м зарница 9/4 500 м
[Cb cap Ac trans Cs]
+25.4 +24.5 95 +36 +36 очень
душно
1010.8 1009.9 0.0
СВ 1 9000 м мгла 9/4 240 м
[Sc Ac trans Cs]
+24.7 +23.8 95 +34 +34 очень
душно
1009.1 1008.2
В 1 10 км мгла 9/4 1000 м
[Sc Ac lent Ci sp]
+24.9 +24.0 95 +34 +35 очень
душно
1010.4 1009.5 +24.2 3
С 1 13 км мгла 9/3 660 м
[Cu hum Ac trans Ci sp]
+30.0 +25.1 75 +43 +50 опасность
перегрева
1012.3 1011.4
ЮЗ 3 12 км мгла 9/4 660 м
[Cu hum Ac lent Ci sp]
+32.5 +25.2 65 +46 +53 опасность
перегрева
1009.7 1008.8
СЗ 4 12 км гроза без осадков 9/4 500 м
[Cb cap Ac trans Ci sp]
+31.2 +26.0 74 +47 +48 опасность
перегрева
1007.0 1006.1
В 1 8000 м гроза, ливневой дождь 9/5 480 м
[Cb cap Ac lent Cs]
+26.7 +25.6 94 +39 +39 очень
душно
1010.2 1009.3 +33.0 2
С 1 6000 м гроза, ливневой дождь 10/5 480 м
[Cb cap As op Cs]
+24.3 +23.6 96 +33 +33 очень
душно
1012.3 1011.4
СВ 1 6000 м дымка {гроза, дождь} 9/4 210 м
[Cb cap Ac trans Cs]
+24.3 +23.8 97 +33 +33 очень
душно
1009.8 1008.9 14
С 1 6000 м дымка 9/4 180 м
[Sc Ac trans Ci sp]
+24.1 +23.6 97 +33 +33 очень
душно
1009.6 1008.7
СВ 1 8000 м мгла 9/3 960 м
[Sc Ac lent Cs]
+24.3 +23.5 95 +33 +33 очень
душно
1010.5 1009.6 +24.0 16
В 2 11 км мгла 9/1 600 м
[Cu med, cong Ac trans Ci sp]
+29.9 +25.7 78 +44 +52 опасность
перегрева
1011.9 1011.0
З 3 12 км мгла 9/4 600 м
[Cu med, cong Ac trans Ci sp]
+31.4 +25.5 71 +46 +52 опасность
перегрева
1009.5 1008.6
СЗ 4 12 км мгла 9/4 500 м
[Cb cap Ac lent Ci sp]
+30.7 +25.9 76 +46 +48 опасность
перегрева
1007.2 1006.3
С 1 9000 м гроза, ливневой дождь 10/5 480 м
[Cb cap As op Cs]
+25.2 +24.7 97 +35 +35 очень
душно
1009.9 1009.0 +32.4 18
С 1 9000 м мгла {гроза} 9/3 900 м
[Sc Ac lent Cs]
+25.1 +24.2 95 +35 +35 очень
душно
1012.3 1011.4
штиль 0 8000 м мгла {гроза, дождь} 9/4 930 м
[Sc Ac trans Cs]
+24.6 +23.7 95 +33 +33 очень
душно
1010.7 1009.8 0.0
Местоположение метеостанции Ситаван (Малайзия): широта 4.22 долгота 100.70 высота над уровнем моря 8 м.
В архиве по умолчанию представлена погода в Ситаване за последнюю неделю. Архивные данные за месяц целиком и за предыдущие месяцы, начиная с января 2011 года, Вы можете получить, выбрав интересующий диапазон дат из раскрывающегося списка и нажав кнопку "Найти!".
*Определитесь, кто Вы:
Внимание! Время в таблицах - всемирное. Для получения местного времени необходимо прибавить поправку, которая равна 7 ч.
Смотрите также архив погоды в соседних городах и на ближайших метеорологических станциях:
Партнеры нашего сайта:      
Пояснения к столбцам:
  • Ветер - указаны скорость ветра в м/с - средняя за 10 мин, порывы в срок и между сроками (в фигурных скобках) и направление, откуда дует ветер: С - северный,
  • СВ - северо-восточный, В - восточный, ЮВ - юго-восточный, Ю - южный, ЮЗ - юго-западный, З - западный, СЗ - северо-западный.
  • Видимость - горизонтальная дальность видимости в метрах или километрах. При видимости от 1 до 10 км при отсутствии осадков обычно наблюдается дымка, при ухудшении видимости до 1 км и менее - туман. В сухую погоду видимость может ухудшаться дымом, пылью или мглою.
  • Явления - указаны атмосферные явления, наблюдавшиеся в срок или в последний час перед сроком; фигурными скобками обозначены явления, наблюдавшиеся между сроками (за 1-3 часа до срока); квадратными скобками обозначены град или гололедные отложения с указанием их диаметра в мм.
  • Облачность - указаны через наклонную черту общая и нижняя облачность в баллах и высота нижней границы облаков в метрах; квадратными скобками обозначены формы облаков: Ci - перистые, Cs - перисто-слоистые, Cc - перисто-кучевые, Ac - высококучевые, As - высокослоистые, Sc - слоисто-кучевые, Ns - слоисто-дождевые, Cu - кучевые, Cb - кучево-дождевые. Подробнее классификацию облаков см. в Атласе облаков (PDF).
  • T - Температура воздуха - температура, измеренная на высоте 2 м над землей.
  • Td - Температура точки росы - температура, при понижении до которой содержащийся в воздухе водяной пар достигнет насыщения.
  • f - Относительная влажность воздуха - влажноcть воздуха, измеренная на высоте 2 м над землей.
  • Te - Эффективная температура - температура, которую ощущает одетый по сезону человек в тени. Характеристика душности погоды. При расчете учитывается влияние влажности воздуха и скорости ветра на теплоощущения человека.
  • Tes - Эффективная температура на солнце - температура, которую ощущает человек, с поправкой на солнечный нагрев. Характеристика знойности погоды. Зависит от высоты солнца над горизонтом, облачности и скорости ветра. Ночью, в пасмурную погоду, а также при ветре 12 м/с и более поправка равна нулю.
  • P - Атмосферное давление - приведенное к уровню моря атмосферное давление.
  • Po - Атмосферное давление - измеренное на уровне метеостанции атмосферное давление.
  • Tmin - Минимальная температура - минимум температуры воздуха на высоте 2 м над землей.
  • Tmax - Максимальная температура - максимум температуры воздуха на высоте 2 м над землей.
  • R - Количество осадков - Количество выпавших осадков за период времени, мм. При наведении курсора мыши на число - период времени, за который выпало указанное количество осадков.
  • R24 - Количество осадков - Количество выпавших осадков за 24 часа, мм.
  • S - Снежный покров - Высота снежного покрова, см. При наведении курсора мыши на число - состояние снежного покрова и степень покрытия местности в баллах.